User: anonymous   Login
Location: Grossmotten
(48.5500°N, 15.3833°E)
Time: 09:56:16
(UTC+00:00)
Language:

PAYLOAD B - Orbit

View from above orbital plane
View from above orbital plane
View from above satellite
View from above satellite

Ground track
Ground track

The orbit data is extracted from the following two-line orbital elements,

1 27431U 02024B   20019.10627725 -.00000021  00000-0  14234-4 0  9999
2 27431  99.1337  14.9674 0014869 323.7497  36.2664 14.09690991909671
Epoch (UTC): 19 January 2020 02:33:02
Eccentricity: 0.0014869
inclination: 99.1337°
perigee height: 849 km
apogee height: 871 km
right ascension of ascending node: 14.9674°
argument of perigee: 323.7497°
revolutions per day: 14.09690991
mean anomaly at epoch: 36.2664°
orbit number at epoch: 90967

The dashed part of the orbit path shows where the satellite is in the earth's shadow,  

DLR